Regional Weather Roundup
Issued by NWS

Home | Current Version | Previous Version | Graphics & Text | Print | Product List | Glossary Off
Versions: 1 2 3 4 5 6 7 8 9 10 11 12 13 14 15 16 17 18 19 20 21 22 23 24 25 26 27 28 29 30 31 32 33 34 35 36 37 38 39 40 41 42 43 44 45 46 47 48 49 50

000
ASUS43 KTOP 211508
RWRKS

WEATHER ROUNDUP FOR KANSAS
NATIONAL WEATHER SERVICE GOODLAND KS
900 AM CST WED FEB 21 2018

NOTE:  "FAIR" INDICATES FEW OR NO CLOUDS BELOW 12,000 FEET WITH NO
SIGNIFICANT WEATHER AND/OR OBSTRUCTIONS TO VISIBILITY.

KSZ001>006-013>018-027>032-041>047-211600-
NORTHWEST KANSAS

CITY           SKY/WX    TMP DP  RH WIND       PRES   REMARKS
GOODLAND       SUNNY      7   1  76 SE9       30.40R
HAYS           CLOUDY    13   3  64 NE10      30.55S WCI   0
HILL CITY      CLOUDY    11   3  70 E5        30.55R
RUSSELL        CLOUDY    13   3  64 NE10      30.55S WCI   0
$$

KSZ061>065-074>080-084>089-211600-
SOUTHWEST KANSAS

CITY           SKY/WX    TMP DP  RH WIND       PRES   REMARKS
DODGE CITY     CLOUDY    13   0  56 NE16      30.45S WCI  -3
ELKHART        SUNNY     16   5  60 NE7       30.40R
GARDEN CITY    CLOUDY    10   1  67 NE7       30.46R
GREAT BEND     CLOUDY    13   2  61 NE17      30.53F WCI  -4
LIBERAL        CLOUDY    15   2  56 N13       30.45R WCI   1
PRATT          CLOUDY    13   2  61 N17       30.49S WCI  -4
$$

KSZ066>073-081>083-090>101-211600-
SOUTHEAST KANSAS

CITY           SKY/WX    TMP DP  RH WIND       PRES   REMARKS
CHANUTE        CLOUDY    19  15  84 N12       30.53S WCI   7
COFFEYVILLE    CLOUDY    23  19  85 N15       30.51R WCI  10
HUTCHINSON     CLOUDY    14   7  73 N16       30.51F WCI  -2
MEDICINE LODGE   N/A     16   6  65 N17       30.48S WCI   0
NEWTON         CLOUDY    13   9  84 N21       30.52F WCI  -5
PARSONS        CLOUDY    21  18  88 N12G22    30.52S WCI   9
WICHITA INTL   CLOUDY    17  10  74 N16       30.51S WCI   2
WICHITA JABRA  CLOUDY    15  11  83 N17G24    30.50F WCI  -1
WICHITA MCCONL CLOUDY    16  10  76 NE16      30.50S WCI   1
WINFIELD       CLOUDY    19  15  84 NE17      30.49F WCI   4
$$

KSZ007>012-019>026-033>040-048>060-102>105-211600-
NORTHEAST KANSAS

CITY           SKY/WX    TMP DP  RH WIND       PRES   REMARKS
CONCORDIA      CLOUDY    12   4  70 NE9       30.61R
EMPORIA        CLOUDY    15   9  76 N12       30.56R WCI   2
LAWRENCE       CLOUDY    17  12  80 N8        30.60R
MANHATTAN      CLOUDY    16   7  67 NE10      30.62R WCI   4
MARYSVILLE     CLOUDY    14   5  67 NE10      30.63R WCI   1
OLATHE IND     CLOUDY    17  13  84 N13       30.57R WCI   4
OLATHE EXE     CLOUDY    16  13  88 N12       30.56R WCI   3
SALINA         CLOUDY    14   6  70 N10       30.60F WCI   1
TOPEKA BILLARD CLOUDY    16  11  80 N9        30.61R
TOPEKA FORBES  CLOUDY    16  10  77 N9        30.58R
$$



USA.gov is the U.S. government's official web portal to all federal, state and local government web resources and services.